Home > Weather > Blackpool > Past weeks

Flag for United Kingdom Past Weather in Blackpool, England, United Kingdom — Yesterday and Last 2 Weeks

Now
61 °F

Scattered showers. Scattered clouds.


Feels Like: 61 °F
Forecast: 55 / 60 °F
Wind: 13 mph from Northwest

Location: Blackpool Airport

Current Time: Jun 25, 2016 at 9:45:34 AM

Latest Report: Jun 25, 2016 at 9:20 AM


Visibility: N/A

Pressure: 30.04 "Hg

Humidity: 77%

Dew Point: 54 °F

Location of BlackpoolLocation

Past Weather in Blackpool — Graph

°F

Blackpool Temperature Yesterday

Maximum temperature yesterday: 64 °F (at 11:50 AM)
Minimum temperature yesterday: 57 °F (at 6:20 AM)
Average temperature yesterday: 61 °F

High & Low Weather Summary for the Past Weeks

 TemperatureHumidityPressure
High68 °F (Jun 10, 11:50 AM)100% (Jun 12, 7:20 PM)30.18 "Hg (Jun 12, 7:20 PM)
Low54 °F (Jun 15, 6:20 AM)60% (Jun 21, 4:20 PM)29.33 "Hg (Jun 14, 5:50 PM)
Average62 °F79%29.82 "Hg
* Reported Jun 10 8:20 AM — Jun 25 8:20 AM, Blackpool, Weather by CustomWeather, © 2016

Note: Actual official high and low records may vary slightly from our data, if they occured in-between our weather recording intervals... More about our weather records

Advertising

Blackpool Weather History for the Previous 24 Hours

Scroll right to see more
 ConditionsComfort  
Time TempWeatherWind HumidityBarometerVisibility
8:20 AM
Sat, Jun 25
59 °FScattered clouds.8 mph82%30.04 "HgN/A
7:50 AM59 °FScattered clouds.5 mph77%30.01 "HgN/A
7:20 AM57 °FScattered clouds.5 mph82%30.01 "HgN/A
6:50 AM57 °FScattered clouds.6 mph82%30.01 "HgN/A
6:20 AM57 °FScattered clouds.12 mph82%30.01 "HgN/A
8:50 PM
Fri, Jun 24
59 °FPassing clouds.5 mph77%29.98 "HgN/A
8:20 PM61 °FPassing clouds.7 mph72%29.98 "HgN/A
7:50 PM61 °FPassing clouds.6 mph72%29.98 "HgN/A
7:20 PM61 °FPassing clouds.6 mph72%29.98 "HgN/A
6:50 PM61 °FPassing clouds.6 mph72%29.98 "HgN/A
6:20 PM63 °FPassing clouds.7 mph68%29.98 "HgN/A
5:50 PM63 °FPassing clouds.6 mph68%29.98 "HgN/A
5:20 PM63 °FPassing clouds.7 mph73%29.98 "HgN/A
4:50 PM63 °FPassing clouds.8 mph73%29.98 "HgN/A
4:20 PM61 °FScattered clouds.6 mph77%29.98 "HgN/A
3:50 PM63 °FScattered clouds.8 mph73%29.98 "HgN/A
3:20 PM63 °FScattered clouds.9 mph77%29.98 "HgN/A
2:50 PM63 °FScattered clouds.10 mph77%29.98 "HgN/A
2:20 PM61 °FScattered showers. Scattered clouds.10 mph77%29.98 "HgN/A
1:50 PM63 °FScattered showers. Scattered clouds.12 mph73%29.98 "HgN/A
1:20 PM61 °FScattered showers. Scattered clouds.14 mph77%29.98 "HgN/A
12:50 PM61 °FScattered clouds.14 mph77%29.98 "HgN/A
12:20 PM63 °FScattered clouds.13 mph77%29.98 "HgN/A
11:50 AM64 °FScattered showers. Scattered clouds.14 mph78%29.98 "HgN/A
11:20 AM61 °FScattered showers. Scattered clouds.13 mph83%29.98 "HgN/A
10:50 AM61 °FScattered clouds.14 mph77%29.98 "HgN/A
10:20 AM61 °FScattered clouds.13 mph77%29.98 "HgN/A
9:50 AM61 °FScattered clouds.13 mph83%29.98 "HgN/A
9:20 AM59 °FScattered clouds.12 mph88%29.98 "HgN/A
Weather by CustomWeather, © 2016

See weather overviewHow to use our weather pages